Weather History for KMSL - March, 2013

Change the Weather History Date:

Tuesday, March 5, 2013

  Actual Average Record
Temperature  
Mean Temperature 49 °F 50 °F  
Max Temperature 60 °F 61 °F 86 °F (1908)
Min Temperature 37 °F 40 °F 11 °F (1960)
Degree Days  
Heating Degree Days 16 15  
Month to date heating degree days 119 78  
Since 1 July heating degree days 2335 2613  
Cooling Degree Days 0 0  
Month to date cooling degree days 0 0  
Year to date cooling degree days 7 1  
Moisture  
Dew Point 46 °F    
Average Humidity 66    
Maximum Humidity 83    
Minimum Humidity 48    
Precipitation  
Precipitation 0.73 in 0.15 in 3.92 in (1983)
Month to date precipitation 0.74 0.79  
Year to date precipitation 12.24 10.06  
Snow  
Snow 0.00 in - - ()
Month to date snowfall T  
Since 1 July snowfall T  
Snow Depth 0.00 in    
Sea Level Pressure  
Sea Level Pressure 29.87 in    
Wind  
Wind Speed 15 mph (WSW)    
Max Wind Speed 32 mph    
Max Gust Speed 40 mph    
Visibility 8 miles    
Events Rain , Thunderstorm    
T = Trace of Precipitation, MM = Missing Value Source: NWS Daily Summary

Daily Weather History Graph

Daily Weather History Graph

Search for Another Location

Airport or City:

Trip Planner

Search our weather history database for the weather conditions in past years. The results will help you decide how hot, cold, wet, or windy it might be!

Date:

Astronomy

Mar. 05, 2013 Rise Set
Actual Time 6:14 AM CST 5:49 PM CST
Civil Twilight 5:48 AM CST 6:15 PM CST
Nautical Twilight 5:19 AM CST 6:44 PM CST
Astronomical Twilight 4:50 AM CST 7:13 PM CST
Moon 1:15 AM CST 11:39 AM CST
Length of Visible Light 12h 26m
Length of Day
11h 35m
Last Quarter, 40% of the Moon is Illuminated
Mar 5
Last Quarter
Mar 11
New
Mar 19
First Quarter
Mar 27
Full
Apr 2
Last Quarter

Hourly Weather History & Observations

Time (CST) Temp. Windchill Dew Point Humidity Pressure Visibility Wind Dir Wind Speed Gust Speed Precip Events Conditions
1:53 AM 57.9 °F - 46.9 °F 67% 29.87 in 10.0 mi South 13.8 mph 20.7 mph N/A   Overcast
2:53 AM 59.0 °F - 48.0 °F 67% 29.86 in 10.0 mi South 13.8 mph 19.6 mph N/A   Overcast
3:43 AM 59.0 °F - 48.2 °F 67% 29.87 in 10.0 mi SSW 13.8 mph 24.2 mph N/A   Overcast
3:53 AM 59.0 °F - 48.9 °F 69% 29.86 in 10.0 mi SSW 11.5 mph - N/A   Overcast
4:53 AM 59.0 °F - 50.0 °F 72% 29.86 in 10.0 mi SSW 12.7 mph - N/A   Mostly Cloudy
5:53 AM 59.0 °F - 50.0 °F 72% 29.86 in 10.0 mi SSW 11.5 mph 19.6 mph N/A   Overcast
6:34 AM 59.0 °F - 51.8 °F 77% 29.86 in 10.0 mi SSW 15.0 mph 20.7 mph N/A   Overcast
7:00 AM 59.0 °F - 51.8 °F 77% 29.84 in 10.0 mi SSW 12.7 mph - N/A   Mostly Cloudy
7:26 AM 60.8 °F - 51.8 °F 72% 29.84 in 10.0 mi SSW 18.4 mph 25.3 mph N/A   Overcast
7:53 AM 59.0 °F - 52.0 °F 78% 29.83 in 9.0 mi SSW 17.3 mph 25.3 mph N/A   Overcast
8:16 AM 57.2 °F - 51.8 °F 82% 29.82 in 10.0 mi South 15.0 mph - 0.01 in Thunderstorm Overcast
8:26 AM 57.2 °F - 51.8 °F 82% 29.83 in 10.0 mi SSW 15.0 mph 21.9 mph 0.01 in Thunderstorm Overcast
8:53 AM 57.0 °F - 53.1 °F 87% 29.81 in 9.0 mi SSW 12.7 mph 21.9 mph 0.05 in Rain , Thunderstorm Light Rain
9:09 AM 57.2 °F - 53.6 °F 88% 29.82 in 1.8 mi SSW 19.6 mph 25.3 mph 0.08 in Rain , Thunderstorm Heavy Thunderstorms and Rain
9:23 AM 57.2 °F - 53.6 °F 88% 29.81 in 3.0 mi SSW 15.0 mph - 0.19 in Rain , Thunderstorm Heavy Thunderstorms and Rain
9:44 AM 57.2 °F - 53.6 °F 88% 29.81 in 8.0 mi SSW 13.8 mph - 0.24 in Rain Light Rain
9:53 AM 57.9 °F - 54.0 °F 87% 29.79 in 10.0 mi SSW 11.5 mph - 0.24 in   Overcast
10:00 AM 59.0 °F - 53.6 °F 82% 29.79 in 8.0 mi SSW 11.5 mph - N/A   Overcast
10:08 AM 59.0 °F - 53.6 °F 82% 29.80 in 5.0 mi SSW 13.8 mph 20.7 mph 0.00 in Rain Light Rain
10:18 AM 57.2 °F - 53.6 °F 88% 29.80 in 2.5 mi SSW 12.7 mph 21.9 mph 0.01 in Rain Light Rain
10:28 AM 57.2 °F - 55.4 °F 94% 29.79 in 2.5 mi SSW 9.2 mph - 0.01 in Rain Light Rain
10:35 AM 57.2 °F - 55.4 °F 94% 29.79 in 3.0 mi SSW 10.4 mph - 0.02 in Rain Light Rain
10:53 AM 57.9 °F - 55.0 °F 90% 29.73 in 5.0 mi Calm Calm - 0.03 in Rain Light Rain
10:58 AM 57.2 °F - 55.4 °F 94% 29.76 in 5.0 mi SW 9.2 mph - 0.00 in Rain Light Rain
11:17 AM 57.2 °F - 55.4 °F 94% 29.76 in 7.0 mi SSW 10.4 mph - 0.00 in Thunderstorm Overcast
11:26 AM 57.2 °F - 55.4 °F 94% 29.75 in 7.0 mi SSW 9.2 mph - 0.00 in   Overcast
11:42 AM 57.2 °F - 55.4 °F 94% 29.76 in 1.8 mi West 9.2 mph - 0.00 in Rain , Thunderstorm Heavy Rain
11:53 AM 57.9 °F - 55.0 °F 90% 29.78 in 1.0 mi WNW 27.6 mph 38.0 mph 0.02 in Rain , Thunderstorm Heavy Rain
11:58 AM 57.2 °F - 53.6 °F 88% 29.80 in 1.2 mi WNW 27.6 mph 38.0 mph 0.00 in Rain Heavy Rain
12:03 PM 55.4 °F - 51.8 °F 88% 29.81 in 2.5 mi WNW 28.8 mph 40.3 mph 0.01 in Rain , Thunderstorm Rain
12:07 PM 55.4 °F - 50.0 °F 82% 29.82 in 4.0 mi WNW 29.9 mph 40.3 mph 0.02 in Rain , Thunderstorm Heavy Rain
12:20 PM 53.6 °F - 48.2 °F 82% 29.83 in 3.0 mi WNW 20.7 mph 31.1 mph 0.07 in Rain , Thunderstorm Heavy Rain
12:27 PM 51.8 °F - 48.2 °F 88% 29.82 in 4.0 mi WNW 19.6 mph - 0.12 in Rain Heavy Rain
12:53 PM 51.1 °F - 46.0 °F 83% 29.83 in 10.0 mi WNW 25.3 mph 32.2 mph 0.26 in   Overcast
1:53 PM 45.0 °F 36.6 °F 39.9 °F 82% 29.90 in 10.0 mi WNW 21.9 mph 38.0 mph 0.13 in   Overcast
2:53 PM 42.1 °F 33.6 °F 35.1 °F 76% 29.96 in 10.0 mi NW 18.4 mph 31.1 mph N/A   Overcast
3:02 PM 42.8 °F 34.0 °F 35.6 °F 76% 29.97 in 10.0 mi NW 20.7 mph 31.1 mph N/A   Overcast
3:53 PM 42.1 °F 33.3 °F 32.0 °F 67% 30.00 in 10.0 mi NW 19.6 mph 25.3 mph N/A   Overcast
4:30 PM 42.8 °F 35.8 °F 33.8 °F 70% 30.02 in 10.0 mi NW 13.8 mph - N/A   Overcast
4:53 PM 43.0 °F 35.1 °F 33.1 °F 68% 30.03 in 10.0 mi WNW 17.3 mph 23.0 mph N/A   Overcast
5:53 PM 43.0 °F 35.4 °F 32.0 °F 65% 30.04 in 10.0 mi NW 16.1 mph 20.7 mph N/A   Overcast
6:53 PM 41.0 °F 35.8 °F 30.9 °F 67% 30.05 in 10.0 mi WNW 8.1 mph - N/A   Mostly Cloudy
7:53 PM 39.9 °F 34.5 °F 30.9 °F 70% 30.05 in 10.0 mi West 8.1 mph - N/A   Clear
8:53 PM 39.0 °F 32.8 °F 30.0 °F 70% 30.06 in 10.0 mi WNW 9.2 mph - N/A   Clear
9:53 PM 39.9 °F 32.1 °F 28.0 °F 63% 30.06 in 10.0 mi WNW 13.8 mph - N/A   Scattered Clouds
10:53 PM 37.9 °F 28.2 °F 19.9 °F 48% 30.10 in 10.0 mi NNW 18.4 mph 33.4 mph N/A   Overcast
11:53 PM 37.0 °F 29.3 °F 19.9 °F 50% 30.11 in 10.0 mi NW 11.5 mph 20.7 mph N/A   Clear